Location: ????????
(55.4717°N, 39.1821°E)
Time: 04:37:16
(UTC+00:00)

SL-16 R/B - Pass Details

Date: 14 April 2024
Orbit: 984 x 1007 km, 99.7° (Epoch: 13 May)

Event Time Altitude Azimuth Distance (km) Brightness Sun altitude
Exits shadow 00:59:54 11° 212° (SSW) 2,642 4.2 -11.0°
Maximum altitude 01:04:47 28° 268° (W) 1,769 3.4 -10.5°
Drops below altitude 10° 01:10:04 10° 326° (NNW) 2,778 4.9 -9.9°
Sets 01:12:58 0° 338° (NNW) 3,736 5.7 -9.5°
